Regional Weather Roundup
Issued by NWS Sioux Falls, SD

Home | Current Version | Previous Version | Graphics & Text | Print | Product List | Glossary On
Versions: 1 2 3 4 5 6 7 8 9 10 11 12 13 14 15 16 17 18 19 20 21 22 23 24 25 26 27 28 29 30 31 32 33 34 35 36 37 38 39 40 41 42 43 44 45 46 47 48 49 50
000
ASUS43 KFSD 040302
RWRFSD

WEATHER ROUNDUP FOR SE SOUTH DAKOTA/SW MINNESOTA/NW IOWA
NATIONAL WEATHER SERVICE SIOUX FALLS SD
900 PM CST SAT DEC 03 2016

NOTE: "FAIR" INDICATES FEW OR NO CLOUDS BELOW 12,000 FEET WITH NO
SIGNIFICANT WEATHER AND OR OBSTRUCTIONS TO VISIBILITY.


SDZ038>040-050-052>070-040400-
SOUTHEAST SOUTH DAKOTA

CITY           SKY/WX    TMP DP  RH WIND       PRES   REMARKS
CHAMBERLAIN    PTCLDY    31  27  84 W6        29.92R WCI  26
HURON          CLOUDY    35  33  92 S13       29.93F WCI  26
MADISON        CLOUDY    32  32 100 S23G29    29.99S WCI  19
MITCHELL       CLOUDY    36  33  89 S16       29.97F
SIOUX FALLS    CLOUDY    34  33  96 S16       30.03F FOG     WCI  24
WINNER         FAIR      29  22  75 SW8       29.93S WCI  21
YANKTON        CLOUDY    36  30  80 S17       30.03S
$$

MNZ071-072-080-081-089-090-097-098-040400-
SOUTHWEST MINNESOTA

CITY           SKY/WX    TMP DP  RH WIND       PRES   REMARKS
FAIRMONT       CLOUDY    33  32  96 S13       30.11F WCI  24
JACKSON        CLOUDY    32  32 100 S9        30.09F FOG     WCI  24
LUVERNE        CLOUDY    32  32 100 S14G20    30.05F FOG     WCI  22
MARSHALL       CLOUDY    34  31  88 S15       30.05S WCI  24
MONTEVIDEO     CLOUDY    34  34 100 S10       30.06S FOG     WCI  26
PIPESTONE      CLOUDY    34  32  93 S18       30.01F FOG     WCI  23
REDWOOD FALLS  CLOUDY    34  31  88 SE10      30.08F FOG     WCI  26
TRACY          CLOUDY    34  32  92 S10G20    30.05S FOG     WCI  26
WINDOM         CLOUDY    34  32  93 S10G17    30.07F WCI  26
WORTHINGTON    MIX PCPN  32  31  96 S13       30.06F WCI  22
$$

IAZ001>003-012>014-020>022-031-032-NEZ013-014-SDZ071-040400-
NORTHWEST IOWA

CITY           SKY/WX    TMP DP  RH WIND       PRES   REMARKS
CHEROKEE       LGT SNOW  32  32 100 S9        30.09F WCI  25
DENISON        LGT SNOW  32  32 100 SE6       30.08F WCI  26
ESTHERVILLE    LGT SNOW  32  32 100 S10       30.10F FOG     WCI  24
LE MARS        CLOUDY    34  32  93 S9        30.09F WCI  26
ORANGE CITY    CLOUDY    34  34 100 S9        30.07S WCI  26
SHELDON        CLOUDY    34  34 100 S10G17    30.06F WCI  26
SIOUX CITY     CLOUDY    35  33  92 S10       30.09F WCI  27
SPENCER        LGT SNOW  33  33 100 S15       30.10F FOG     WCI  23
STORM LAKE     LGT SNOW  32  32 100 SE13      30.09F WCI  22
$$

ABBREVIATIONS USED IN REMARKS
   TC - TEMPERATURE IN CELSIUS
  WCI - WIND CHILL INDEX
   HX - HEAT INDEX
  VSB - VISIBILITY





USA.gov is the U.S. government's official web portal to all federal, state and local government web resources and services.